• In Hungary
  • List of Countries
  • For 7 days
  • Water Temperature
  • Satellite Maps
  • Weather Map
  • News
  • Weather Widgets
  • user-avatar
    Login

    Hourly Weather Ciesina

    Today, 20 September, Thursday

    Time Temperature Precipitation Wind Pressure Humidity
    00:00 +19°C° 0 mm 1 mps 752 mmHg 81%
    01:00 +19°C° 0 mm 1 mps 753 mmHg 82%
    02:00 +18°C° 0 mm 1 mps 753 mmHg 83%
    03:00 +18°C° 0 mm 1 mps 752 mmHg 83%
    04:00 +18°C° 0 mm 1 mps 752 mmHg 84%
    05:00 +19°C° 0 mm 1 mps 753 mmHg 80%
    06:00 +19°C° 0 mm 2 mps 753 mmHg 76%
    07:00 +20°C° 0 mm 2 mps 753 mmHg 72%
    08:00 +23°C° 0 mm 2 mps 753 mmHg 65%
    09:00 +25°C° 0 mm 3 mps 753 mmHg 58%
    10:00 +27°C° 0 mm 3 mps 753 mmHg 51%
    11:00 +28°C° 0 mm 3 mps 753 mmHg 49%
    12:00 +29°C° 0 mm 3 mps 753 mmHg 46%
    13:00 +30°C° 0 mm 4 mps 753 mmHg 44%
    14:00 +29°C° 0 mm 3 mps 752 mmHg 46%
    15:00 +29°C° 0 mm 3 mps 752 mmHg 49%
    16:00 +28°C° 0 mm 2 mps 752 mmHg 51%
    17:00 +27°C° 0 mm 2 mps 752 mmHg 55%
    18:00 +25°C° 0 mm 2 mps 752 mmHg 60%
    19:00 +23°C° 0 mm 2 mps 752 mmHg 65%
    20:00 +21°C° 0 mm 2 mps 752 mmHg 66%
    21:00 +21°C° 0 mm 2 mps 752 mmHg 68%
    22:00 +20°C° 0 mm 2 mps 752 mmHg 70%
    23:00 +20°C° 0 mm 2 mps 752 mmHg 72%

    Tomorrow, 21 September, Friday

    Time Temperature Precipitation Wind Pressure Humidity
    00:00 +19°C° 0 mm 2 mps 752 mmHg 73%
    01:00 +19°C° 0 mm 2 mps 751 mmHg 75%
    02:00 +19°C° 0 mm 2 mps 751 mmHg 75%
    03:00 +18°C° 0 mm 3 mps 751 mmHg 76%
    04:00 +18°C° 0 mm 3 mps 751 mmHg 76%
    05:00 +18°C° 0 mm 3 mps 751 mmHg 73%
    06:00 +19°C° 0 mm 3 mps 751 mmHg 69%
    07:00 +19°C° 0 mm 4 mps 751 mmHg 66%
    08:00 +21°C° 0 mm 4 mps 750 mmHg 59%
    09:00 +23°C° 0 mm 5 mps 750 mmHg 52%
    10:00 +26°C° 0 mm 6 mps 750 mmHg 45%
    11:00 +27°C° 0 mm 6 mps 749 mmHg 42%
    12:00 +27°C° 0 mm 6 mps 749 mmHg 39%
    13:00 +28°C° 0 mm 7 mps 748 mmHg 36%
    14:00 +28°C° 0 mm 6 mps 747 mmHg 39%
    15:00 +27°C° 0 mm 6 mps 747 mmHg 42%
    16:00 +27°C° 0 mm 5 mps 746 mmHg 45%
    17:00 +26°C° 0 mm 5 mps 746 mmHg 47%
    18:00 +23°C° 0 mm 5 mps 745 mmHg 49%
    19:00 +22°C° 0 mm 6 mps 745 mmHg 52%
    20:00 +22°C° 0 mm 6 mps 745 mmHg 53%
    21:00 +22°C° 0 mm 6 mps 745 mmHg 54%
    22:00 +22°C° 0 mm 6 mps 746 mmHg 55%
    23:00 +19°C° 0.2 mm 6 mps 746 mmHg 63%

    Day after tomorrow, 22 September, Saturday

    Time Temperature Precipitation Wind Pressure Humidity
    00:00 +16°C° 0.2 mm 5 mps 747 mmHg 72%
    01:00 +13°C° 0.2 mm 5 mps 747 mmHg 80%
    02:00 +13°C° 0.1 mm 4 mps 748 mmHg 81%
    03:00 +12°C° 0.1 mm 4 mps 748 mmHg 82%
    04:00 +12°C° 0.1 mm 4 mps 749 mmHg 82%
    05:00 +12°C° 0 mm 4 mps 749 mmHg 79%
    06:00 +12°C° 0 mm 4 mps 749 mmHg 76%
    07:00 +12°C° 0 mm 5 mps 750 mmHg 73%
    08:00 +13°C° 0 mm 6 mps 750 mmHg 65%
    09:00 +14°C° 0 mm 6 mps 750 mmHg 56%
    10:00 +16°C° 0 mm 7 mps 750 mmHg 48%
    11:00 +16°C° 0 mm 7 mps 750 mmHg 46%
    12:00 +17°C° 0 mm 7 mps 750 mmHg 45%
    13:00 +17°C° 0 mm 6 mps 750 mmHg 43%
    14:00 +17°C° 0.1 mm 6 mps 750 mmHg 46%
    15:00 +16°C° 0.1 mm 5 mps 749 mmHg 48%
    16:00 +16°C° 0.1 mm 5 mps 749 mmHg 51%
    17:00 +14°C° 0.1 mm 4 mps 749 mmHg 57%
    18:00 +13°C° 0.1 mm 4 mps 749 mmHg 63%
    19:00 +12°C° 0.1 mm 3 mps 749 mmHg 68%
    20:00 +11°C° 0 mm 3 mps 750 mmHg 71%
    21:00 +11°C° 0 mm 3 mps 750 mmHg 73%
    22:00 +10°C° 0 mm 4 mps 750 mmHg 75%
    23:00 +10°C° 0 mm 4 mps 750 mmHg 75%

    23 September, Sunday

    Time Temperature Precipitation Wind Pressure Humidity
    00:00 +10°C° 0 mm 4 mps 750 mmHg 75%
    01:00 +8°C° 0 mm 4 mps 750 mmHg 76%
    02:00 +8°C° 0 mm 4 mps 750 mmHg 76%
    03:00 +8°C° 0 mm 4 mps 750 mmHg 76%
    04:00 +7°C° 0 mm 4 mps 750 mmHg 76%
    05:00 +8°C° 0 mm 5 mps 750 mmHg 74%
    06:00 +8°C° 0 mm 5 mps 750 mmHg 72%
    07:00 +9°C° 0 mm 6 mps 750 mmHg 70%
    08:00 +10°C° 0 mm 6 mps 750 mmHg 65%
    09:00 +11°C° 0 mm 6 mps 750 mmHg 59%
    10:00 +14°C° 0 mm 7 mps 750 mmHg 54%
    11:00 +14°C° 0 mm 7 mps 750 mmHg 51%
    12:00 +15°C° 0 mm 6 mps 750 mmHg 47%
    13:00 +16°C° 0 mm 6 mps 749 mmHg 43%
    14:00 +16°C° 0 mm 5 mps 749 mmHg 44%
    15:00 +15°C° 0 mm 4 mps 749 mmHg 45%
    16:00 +15°C° 0 mm 4 mps 748 mmHg 46%
    17:00 +14°C° 0 mm 3 mps 748 mmHg 48%
    18:00 +13°C° 0 mm 3 mps 747 mmHg 51%
    19:00 +13°C° 0 mm 2 mps 747 mmHg 53%
    20:00 +12°C° 0.1 mm 3 mps 746 mmHg 57%
    21:00 +11°C° 0.1 mm 4 mps 745 mmHg 60%
    22:00 +11°C° 0.1 mm 4 mps 744 mmHg 63%
    23:00 +10°C° 1.7 mm 5 mps 743 mmHg 72%

    24 September, Monday

    Time Temperature Precipitation Wind Pressure Humidity
    00:00 +9°C° 1.7 mm 6 mps 741 mmHg 81%
    01:00 +9°C° 1.7 mm 7 mps 740 mmHg 90%
    02:00 +9°C° 1.6 mm 7 mps 738 mmHg 90%
    03:00 +9°C° 1.6 mm 8 mps 736 mmHg 91%
    04:00 +10°C° 1.6 mm 8 mps 734 mmHg 92%
    05:00 +11°C° 3.2 mm 8 mps 733 mmHg 92%
    06:00 +11°C° 3.2 mm 8 mps 732 mmHg 92%
    07:00 +12°C° 3.2 mm 7 mps 731 mmHg 92%
    08:00 +12°C° 0.4 mm 7 mps 730 mmHg 87%
    09:00 +14°C° 0.4 mm 7 mps 730 mmHg 82%
    10:00 +14°C° 0.4 mm 7 mps 729 mmHg 77%
    11:00 +14°C° 0.3 mm 7 mps 728 mmHg 78%
    12:00 +14°C° 0.3 mm 6 mps 728 mmHg 79%
    13:00 +13°C° 0.3 mm 6 mps 727 mmHg 80%
    14:00 +13°C° 0.5 mm 6 mps 727 mmHg 82%
    15:00 +13°C° 0.5 mm 6 mps 728 mmHg 85%
    16:00 +11°C° 0.5 mm 6 mps 728 mmHg 87%
    17:00 +10°C° 0.8 mm 8 mps 729 mmHg 86%
    18:00 +8°C° 0.8 mm 10 mps 730 mmHg 85%
    19:00 +7°C° 0.8 mm 12 mps 732 mmHg 84%
    20:00 +7°C° 0.6 mm 12 mps 734 mmHg 83%
    21:00 +7°C° 0.6 mm 12 mps 735 mmHg 81%
    22:00 +7°C° 0.6 mm 12 mps 737 mmHg 80%
    23:00 +7°C° 0.4 mm 11 mps 739 mmHg 80%

    25 September, Tuesday

    Time Temperature Precipitation Wind Pressure Humidity
    00:00 +7°C° 0.4 mm 10 mps 740 mmHg 81%
    01:00 +7°C° 0.4 mm 9 mps 742 mmHg 81%
    02:00 +6°C° 0.3 mm 9 mps 743 mmHg 81%
    03:00 +6°C° 0.3 mm 9 mps 744 mmHg 80%
    04:00 +6°C° 0.3 mm 8 mps 744 mmHg 80%
    05:00 +6°C° 0.2 mm 8 mps 745 mmHg 78%
    06:00 +6°C° 0.2 mm 8 mps 746 mmHg 76%
    07:00 +6°C° 0.2 mm 8 mps 747 mmHg 75%
    08:00 +7°C° 0.3 mm 8 mps 748 mmHg 72%
    09:00 +7°C° 0.3 mm 8 mps 748 mmHg 69%
    10:00 +8°C° 0.3 mm 9 mps 749 mmHg 66%
    11:00 +8°C° 0.4 mm 9 mps 749 mmHg 65%
    12:00 +8°C° 0.4 mm 9 mps 750 mmHg 64%
    13:00 +8°C° 0.4 mm 9 mps 751 mmHg 62%
    14:00 +8°C° 0.2 mm 9 mps 751 mmHg 62%
    15:00 +7°C° 0.2 mm 8 mps 752 mmHg 62%
    16:00 +7°C° 0.2 mm 8 mps 752 mmHg 62%
    17:00 +6°C° 0 mm 7 mps 753 mmHg 65%
    18:00 +6°C° 0 mm 5 mps 753 mmHg 68%
    19:00 +5°C° 0 mm 4 mps 754 mmHg 71%
    20:00 +5°C° 0 mm 4 mps 754 mmHg 71%
    21:00 +5°C° 0 mm 4 mps 755 mmHg 71%
    22:00 +4°C° 0 mm 4 mps 755 mmHg 71%
    23:00 +4°C° 0 mm 4 mps 755 mmHg 72%
    Show more